[[{"header":{"parameterUnit":"m.s-1","parameterCategory":1,"la1":30.2991,"la2":30.254,"lo1":-89.0895,"lo2":-89.0444,"dy":0.0017,"dx":0.0017,"nx":28,"ny":28,"refTime":"2025-08-18T09:00:00:Z","depth":0,"parameterNumber":2,"parameterNumberName":"U-component_of_WINDS"},"data":[0,0,0,0,0,0,0,0,0,0,0,0,0,0,0,0,0,0,0,0,0,0,0,0,0,0,0,0,0,0,0,0,0,0,0,0,0,0,0,0,0,0,0,0,0,0,0,0,0,0,0,0,0,0,0,0,0,0,-0.4791,-0.4791,0,-0.4783,-0.4783,-0.4783,-0.4756,-0.4755,-0.4755,-0.4754,-0.4747,-0.4747,-0.4748,0,0,0,0,0,0,0,0,0,0,0,0,0,-0.4784,-0.4785,-0.4791,-0.4791,-0.4791,-0.4783,-0.4783,-0.4783,-0.4756,-0.4755,-0.4755,-0.4754,-0.4747,-0.4747,-0.4748,0,0,0,0,0,0,0,0,0,0,0,0,0,-0.4783,-0.4785,-0.4791,-0.4777,-0.4775,-0.4783,-0.4783,-0.4783,-0.4756,-0.4755,-0.4754,-0.4753,-0.4747,-0.4747,-0.4748,-0.4769,0,0,-0.475,-0.475,0,0,0,0,0,0,0,0,-0.4783,-0.4783,-0.4779,-0.4778,-0.4776,-0.477,-0.4778,-0.4778,-0.4756,-0.4763,-0.4754,-0.4753,-0.4755,-0.4755,-0.4756,-0.4769,-0.4769,-0.475,-0.475,-0.475,-0.475,0,0,0,0,0,0,0,-0.4783,-0.4783,-0.4788,-0.4779,-0.4777,-0.4771,-0.477,-0.4778,-0.4765,-0.4763,-0.4761,-0.476,-0.4754,-0.4755,-0.4755,-0.4769,-0.475,-0.475,-0.475,-0.4751,-0.4799,-0.48,0,0,0,0,0,0,-0.4785,-0.4784,-0.4788,-0.4788,-0.4777,-0.4772,-0.477,-0.4773,-0.4764,-0.4762,-0.4761,-0.4759,-0.4755,-0.4755,-0.4755,-0.4779,-0.475,-0.4751,-0.4751,-0.4798,-0.4799,-0.48,0,0,0,0,0,0,-0.4785,-0.4786,-0.4789,-0.4785,-0.4785,-0.4773,-0.4776,-0.4773,-0.4774,-0.4763,-0.4761,-0.4764,-0.4754,-0.4754,-0.4766,-0.4779,-0.4751,-0.4751,-0.4797,-0.4798,-0.48,-0.4829,0,0,0,0,0,0,-0.4785,-0.4786,-0.4794,-0.4786,-0.4785,-0.48,-0.4776,-0.4773,-0.4775,-0.4772,-0.4765,-0.4763,-0.4753,-0.4765,-0.4766,-0.4779,-0.4752,-0.4796,-0.4797,-0.4799,-0.4827,-0.4831,-0.4835,0,0,0,0,0,-0.4785,-0.4803,-0.4795,-0.4795,-0.4795,-0.48,-0.48,-0.4788,-0.4776,-0.4784,-0.4777,-0.4764,-0.4777,-0.4767,-0.4768,-0.4781,-0.4795,-0.4797,-0.4799,-0.4825,-0.483,-0.4835,0,0,0,0,0,0,-0.4814,-0.4802,-0.4792,-0.4808,-0.4805,-0.4796,-0.4806,-0.4794,-0.4795,-0.4793,-0.4777,-0.4776,-0.479,-0.4786,-0.4775,-0.4801,-0.4784,-0.4786,-0.4803,-0.4808,-0.4812,-0.4813,-0.4752,0,0,0,0,0,-0.4822,-0.4828,-0.4816,-0.4832,-0.4831,-0.4818,-0.482,-0.4811,-0.4808,-0.4807,-0.48,-0.4798,-0.4802,-0.4805,-0.4807,-0.4826,-0.4824,-0.4835,-0.4839,-0.4843,-0.4845,-0.4855,-0.486,-0.4807,-0.4807,-0.4807,0,0,-0.484,-0.4834,-0.4838,-0.4837,-0.4834,-0.484,-0.4818,-0.4825,-0.4829,-0.4808,-0.4818,-0.4814,-0.481,-0.4825,-0.4832,-0.4823,-0.4859,-0.4846,-0.4848,-0.4849,-0.4857,-0.4862,-0.4867,-0.4809,-0.4808,-0.4808,0,0,-0.4874,-0.487,-0.4882,-0.4879,-0.4874,-0.4866,-0.4868,-0.486,-0.4856,-0.4866,-0.485,-0.4855,-0.4862,-0.486,-0.486,-0.4892,-0.488,-0.4893,-0.4915,-0.4924,-0.4929,-0.4932,-0.4944,-0.4948,-0.4896,-0.4896,-0.4896,0,-0.4897,-0.4905,-0.489,-0.4898,-0.4898,-0.4878,-0.489,-0.4888,-0.4884,-0.4885,-0.4875,-0.4882,-0.4878,-0.4893,-0.49,-0.4901,-0.4904,-0.4895,-0.4929,-0.4932,-0.4936,-0.4947,-0.4951,-0.4898,-0.4897,-0.4897,-0.4897,0,-0.4932,-0.4938,-0.4948,-0.4944,-0.4946,-0.4956,-0.4943,-0.4945,-0.4935,-0.4928,-0.4939,-0.4933,-0.4934,-0.4937,-0.4927,-0.4949,-0.4944,-0.4932,-0.4914,-0.4943,-0.4953,-0.4957,-0.49,-0.4899,-0.4899,-0.4898,0,0,-0.4986,-0.4973,-0.4977,-0.4975,-0.4968,-0.4972,-0.4981,-0.4981,-0.4984,-0.4982,-0.499,-0.4995,-0.4983,-0.4983,-0.4973,-0.4981,-0.5007,-0.4968,-0.4967,-0.4975,-0.5031,-0.5041,-0.5046,-0.4999,-0.4999,-0.5,-0.5032,0,-0.5019,-0.5033,-0.502,-0.5037,-0.5042,-0.5022,-0.503,-0.5026,-0.5019,-0.5023,-0.5015,-0.5019,-0.5003,-0.5003,-0.501,-0.5003,-0.5018,-0.5,-0.5006,-0.5006,-0.5008,-0.5051,-0.5062,-0.5092,-0.5035,-0.5036,-0.5037,0,-0.506,-0.5059,-0.5076,-0.5067,-0.5069,-0.5076,-0.5075,-0.5078,-0.5073,-0.5068,-0.5067,-0.5054,-0.5063,-0.5045,-0.5056,-0.5044,-0.5045,-0.5042,-0.5042,-0.5043,-0.5024,-0.5054,-0.5101,-0.5106,-0.5043,-0.5042,-0.5042,0,-0.5098,-0.5101,-0.5111,-0.511,-0.51,-0.5105,-0.5101,-0.5095,-0.5096,-0.5095,-0.5096,-0.5096,-0.5096,-0.5097,-0.5085,-0.5073,-0.5097,-0.5079,-0.5093,-0.5094,-0.51,-0.51,-0.5149,-0.51,-0.51,-0.51,-0.51,0,-0.5136,-0.5148,-0.5128,-0.5135,-0.5147,-0.5131,-0.5144,-0.5138,-0.5132,-0.5138,-0.5121,-0.5126,-0.5109,-0.5113,-0.5103,-0.5114,-0.5114,-0.511,-0.5108,-0.5112,-0.5113,-0.5113,-0.5111,-0.5101,-0.5101,-0.5101,-0.51,0,-0.5181,-0.5169,-0.5179,-0.5168,-0.5165,-0.5175,-0.5165,-0.5171,-0.5162,-0.5169,-0.517,-0.5156,-0.516,-0.5147,-0.5149,-0.5142,-0.5158,-0.5152,-0.5159,-0.5158,-0.5173,-0.5172,-0.5225,-0.5231,-0.5178,-0.5178,-0.5179,0,-0.5207,-0.5216,-0.5205,-0.5207,-0.5203,-0.5207,-0.5207,-0.5191,-0.5193,-0.5187,-0.5194,-0.5195,-0.5196,-0.5202,-0.5193,-0.5194,-0.5188,-0.5206,-0.5188,-0.5192,-0.5188,-0.5188,-0.5189,-0.521,-0.5211,-0.5211,-0.5212,0,-0.5255,-0.5248,-0.5249,-0.5248,-0.5248,-0.5247,-0.5244,-0.5247,-0.523,-0.5232,-0.5235,-0.5235,-0.5236,-0.5238,-0.5237,-0.5232,-0.522,-0.5217,-0.5221,-0.5226,-0.523,-0.5228,-0.517,-0.5217,-0.5216,-0.5216,-0.5215,-0.5215,-0.5291,-0.5297,-0.529,-0.5292,-0.5288,-0.5286,-0.5291,-0.5282,-0.5284,-0.5283,-0.5273,-0.5278,-0.5272,-0.5269,-0.5266,-0.527,-0.5261,-0.5266,-0.5267,-0.5269,-0.5272,-0.5229,-0.5269,-0.5269,-0.5269,-0.5269,-0.5269,0,-0.5338,-0.5332,-0.5334,-0.533,-0.5331,-0.5318,-0.5314,-0.5316,-0.532,-0.5316,-0.5316,-0.5319,-0.5321,-0.5311,-0.5311,-0.5316,-0.531,-0.5316,-0.5316,-0.5315,-0.5279,-0.5277,-0.5321,-0.5321,-0.5321,-0.5321,-0.5321,-0.5321,-0.5362,-0.5372,-0.5364,-0.5372,-0.5366,-0.537,-0.5369,-0.5366,-0.5363,-0.5366,-0.5367,-0.5361,-0.5354,-0.5353,-0.5354,-0.5351,-0.5352,-0.5361,-0.5356,-0.5323,-0.5318,-0.5313,-0.531,-0.5361,-0.5361,-0.5392,-0.5392,-0.5393]},{"header":{"parameterUnit":"m.s-1","parameterCategory":1,"la1":30.2991,"la2":30.254,"lo1":-89.0895,"lo2":-89.0444,"dy":0.0017,"dx":0.0017,"nx":28,"ny":28,"refTime":"2025-08-18T09:00:00:Z","depth":0,"parameterNumber":3,"parameterNumberName":"V-component_of_WINDS"},"data":[0,0,0,0,0,0,0,0,0,0,0,0,0,0,0,0,0,0,0,0,0,0,0,0,0,0,0,0,0,0,0,0,0,0,0,0,0,0,0,0,0,0,0,0,0,0,0,0,0,0,0,0,0,0,0,0,0,0,-2.2504,-2.2504,0,-2.2502,-2.2502,-2.2502,-2.2468,-2.2467,-2.2466,-2.2465,-2.2462,-2.2463,-2.2463,0,0,0,0,0,0,0,0,0,0,0,0,0,-2.2478,-2.2479,-2.2504,-2.2504,-2.2504,-2.2502,-2.2502,-2.2502,-2.2468,-2.2467,-2.2466,-2.2465,-2.2462,-2.2463,-2.2463,0,0,0,0,0,0,0,0,0,0,0,0,0,-2.2484,-2.2479,-2.2504,-2.2487,-2.2485,-2.2502,-2.2502,-2.2502,-2.2468,-2.2467,-2.2465,-2.2464,-2.2461,-2.2463,-2.2464,-2.2497,0,0,-2.2467,-2.2467,0,0,0,0,0,0,0,0,-2.2484,-2.2485,-2.2489,-2.2488,-2.2486,-2.2484,-2.2492,-2.25,-2.2468,-2.2475,-2.2465,-2.2464,-2.247,-2.2471,-2.2473,-2.2496,-2.2496,-2.2467,-2.2468,-2.2468,-2.2468,0,0,0,0,0,0,0,-2.2484,-2.2485,-2.2503,-2.249,-2.2488,-2.2479,-2.2478,-2.2493,-2.248,-2.2474,-2.2471,-2.2472,-2.2469,-2.2472,-2.2473,-2.2496,-2.2467,-2.2468,-2.2469,-2.2469,-2.2548,-2.2549,0,0,0,0,0,0,-2.2486,-2.2485,-2.2503,-2.2503,-2.2482,-2.2481,-2.248,-2.2486,-2.2479,-2.2477,-2.2473,-2.247,-2.2471,-2.2471,-2.2472,-2.2511,-2.2468,-2.2469,-2.247,-2.2546,-2.2548,-2.2549,0,0,0,0,0,0,-2.2485,-2.2488,-2.2503,-2.2493,-2.2495,-2.2482,-2.249,-2.2487,-2.2489,-2.2479,-2.2476,-2.2478,-2.247,-2.2471,-2.2491,-2.2511,-2.247,-2.2471,-2.2544,-2.2547,-2.2549,-2.2589,0,0,0,0,0,0,-2.2485,-2.2488,-2.25,-2.2494,-2.2496,-2.2522,-2.2491,-2.2488,-2.2492,-2.2488,-2.2483,-2.2481,-2.2469,-2.249,-2.2492,-2.2511,-2.2472,-2.2543,-2.2545,-2.2548,-2.2586,-2.2592,-2.2598,0,0,0,0,0,-2.2484,-2.2511,-2.2501,-2.2503,-2.2511,-2.2524,-2.2524,-2.251,-2.2493,-2.2506,-2.2499,-2.2481,-2.2508,-2.2492,-2.2495,-2.2514,-2.2541,-2.2545,-2.2548,-2.2583,-2.2591,-2.2597,0,0,0,0,0,0,-2.2519,-2.251,-2.2498,-2.2525,-2.2525,-2.2518,-2.2533,-2.2519,-2.2524,-2.252,-2.2502,-2.2501,-2.2524,-2.2521,-2.2504,-2.2546,-2.2522,-2.2526,-2.2548,-2.2555,-2.2561,-2.2561,-2.2472,0,0,0,0,0,-2.253,-2.2541,-2.2533,-2.2556,-2.2557,-2.2545,-2.255,-2.2539,-2.2539,-2.2539,-2.2534,-2.2534,-2.2543,-2.2548,-2.2556,-2.2585,-2.2584,-2.26,-2.2606,-2.2611,-2.2615,-2.2631,-2.2638,-2.256,-2.256,-2.256,0,0,-2.2552,-2.2549,-2.2557,-2.2563,-2.2563,-2.2575,-2.2546,-2.256,-2.2569,-2.2541,-2.256,-2.2556,-2.2555,-2.2581,-2.2592,-2.2579,-2.2636,-2.2615,-2.2619,-2.262,-2.2635,-2.2642,-2.2649,-2.2562,-2.2562,-2.2561,0,0,-2.2599,-2.2598,-2.2618,-2.2618,-2.2618,-2.2609,-2.2614,-2.2609,-2.2606,-2.2625,-2.2605,-2.2615,-2.263,-2.2631,-2.2633,-2.2682,-2.2666,-2.2685,-2.2716,-2.2732,-2.2738,-2.2743,-2.2761,-2.2768,-2.2688,-2.2688,-2.2688,0,-2.2627,-2.2645,-2.263,-2.2646,-2.265,-2.2626,-2.2646,-2.2647,-2.2649,-2.2652,-2.2638,-2.2657,-2.2654,-2.268,-2.2692,-2.2694,-2.27,-2.2685,-2.2738,-2.2743,-2.2748,-2.2765,-2.2772,-2.2691,-2.269,-2.269,-2.269,0,-2.268,-2.2693,-2.2709,-2.2712,-2.2718,-2.2736,-2.2723,-2.2731,-2.272,-2.2713,-2.2733,-2.273,-2.2736,-2.2742,-2.273,-2.2766,-2.2758,-2.2741,-2.2716,-2.2758,-2.2774,-2.278,-2.2694,-2.2693,-2.2692,-2.2692,0,0,-2.2748,-2.2744,-2.275,-2.2752,-2.275,-2.276,-2.2777,-2.2784,-2.2791,-2.2793,-2.2808,-2.2821,-2.2806,-2.2809,-2.2797,-2.2812,-2.2852,-2.2793,-2.2793,-2.2805,-2.2891,-2.2904,-2.2912,-2.2841,-2.2842,-2.2843,-2.2892,0,-2.2794,-2.2824,-2.2812,-2.2842,-2.2855,-2.2833,-2.2848,-2.2849,-2.2843,-2.2853,-2.2846,-2.2857,-2.2836,-2.2837,-2.285,-2.2844,-2.2869,-2.284,-2.2854,-2.2855,-2.2856,-2.292,-2.2934,-2.298,-2.2898,-2.2899,-2.2899,0,-2.2852,-2.2858,-2.289,-2.2888,-2.2892,-2.2906,-2.2912,-2.2921,-2.2922,-2.2917,-2.2921,-2.2906,-2.2923,-2.2898,-2.2921,-2.2902,-2.2907,-2.2905,-2.2907,-2.2908,-2.288,-2.2924,-2.2994,-2.3001,-2.2909,-2.2908,-2.2907,0,-2.29,-2.2916,-2.2937,-2.2939,-2.2937,-2.2947,-2.2946,-2.2945,-2.2951,-2.2956,-2.2959,-2.2966,-2.297,-2.2976,-2.2964,-2.2947,-2.2989,-2.2963,-2.2986,-2.2986,-2.2996,-2.2996,-2.3069,-2.2998,-2.2998,-2.2998,-2.2998,0,-2.2953,-2.2974,-2.2959,-2.2973,-2.2995,-2.2981,-2.3004,-2.3001,-2.3,-2.3013,-2.2994,-2.3006,-2.2989,-2.3,-2.2991,-2.3012,-2.3013,-2.301,-2.3008,-2.3012,-2.3013,-2.3016,-2.3012,-2.3,-2.3,-2.2999,-2.2999,0,-2.301,-2.3001,-2.3024,-2.302,-2.3019,-2.3036,-2.3033,-2.3045,-2.3039,-2.3055,-2.3058,-2.3048,-2.3059,-2.3048,-2.3058,-2.3052,-2.3081,-2.3073,-2.3081,-2.3079,-2.3103,-2.3101,-2.3181,-2.3191,-2.3114,-2.3114,-2.3115,0,-2.3045,-2.3061,-2.3059,-2.3066,-2.3067,-2.3079,-2.3085,-2.3071,-2.3078,-2.3081,-2.3093,-2.3103,-2.311,-2.3129,-2.3123,-2.3131,-2.3124,-2.3151,-2.3125,-2.313,-2.3125,-2.3125,-2.3127,-2.3157,-2.3158,-2.3159,-2.3159,0,-2.3108,-2.3103,-2.3113,-2.3121,-2.3129,-2.3134,-2.3138,-2.3145,-2.3131,-2.314,-2.3152,-2.3158,-2.3169,-2.318,-2.3186,-2.3185,-2.317,-2.3168,-2.3173,-2.3179,-2.3183,-2.3182,-2.3096,-2.3166,-2.3165,-2.3165,-2.3164,-2.3164,-2.3155,-2.3169,-2.317,-2.3182,-2.3184,-2.3188,-2.32,-2.3196,-2.3206,-2.3215,-2.3206,-2.3221,-2.3221,-2.3229,-2.3229,-2.3241,-2.3229,-2.3237,-2.324,-2.3242,-2.3246,-2.3181,-2.3242,-2.3241,-2.3241,-2.3241,-2.3241,0,-2.3218,-2.3218,-2.3229,-2.3236,-2.3245,-2.3231,-2.3235,-2.3244,-2.3257,-2.326,-2.3268,-2.3282,-2.3292,-2.3287,-2.3296,-2.3306,-2.33,-2.3309,-2.3308,-2.3309,-2.3255,-2.325,-2.3314,-2.3314,-2.3314,-2.3314,-2.3314,-2.3314,-2.3252,-2.3274,-2.327,-2.3293,-2.3293,-2.3308,-2.3312,-2.3316,-2.3318,-2.3335,-2.3344,-2.3341,-2.334,-2.3349,-2.3358,-2.3356,-2.3361,-2.3373,-2.3369,-2.3319,-2.3312,-2.3305,-2.33,-2.3374,-2.3374,-2.3421,-2.3421,-2.3422]}]]